This is the latest recevied weather packets stored in our database for station/object VK5TRM-13. If no packets are shown the sender has not sent any weather packets the latest 10 day(s).
| Time | Temp. | Humidity | Pressure | Rain* | Wind** | Luminosity | Snow |
|---|---|---|---|---|---|---|---|
| 1777788906 | 19.44° C | 41% | 1012.3 hPa | 0 mm | - | - | - |
| 1777788005 | 19.44° C | 42% | 1012.3 hPa | 0 mm | - | - | - |
| 1777787104 | 19.44° C | 42% | 1012.3 hPa | 0 mm | - | - | - |
| 1777786204 | 19.44° C | 42% | 1012.2 hPa | 0 mm | - | - | - |
| 1777785305 | 19.44° C | 42% | 1012.2 hPa | 0 mm | - | - | - |
| 1777784405 | 19.44° C | 41% | 1012.2 hPa | 0 mm | - | - | - |
| 1777783506 | 19.44° C | 41% | 1012.2 hPa | 0 mm | - | - | - |
| 1777782604 | 19.44° C | 42% | 1012.5 hPa | 0 mm | - | - | - |
| 1777781704 | 19.44° C | 42% | 1012.5 hPa | 0 mm | - | - | - |
| 1777780804 | 18.89° C | 43% | 1013 hPa | 0 mm | - | - | - |
| 1777779905 | 18.89° C | 43% | 1013 hPa | 0 mm | - | - | - |
| 1777779006 | 18.89° C | 47% | 1013.2 hPa | 0 mm | - | - | - |
| 1777778105 | 18.89° C | 47% | 1013.2 hPa | 0 mm | - | - | - |
| 1777777205 | 18.33° C | 47% | 1013.4 hPa | 0 mm | - | - | - |
| 1777776304 | 18.33° C | 47% | 1013.4 hPa | 0 mm | - | - | - |
| 1777775405 | 17.78° C | 52% | 1013.6 hPa | 0 mm | - | - | - |
| 1777774505 | 17.78° C | 52% | 1013.6 hPa | 0 mm | - | - | - |
| 1777773605 | 17.22° C | 57% | 1013.7 hPa | 0 mm | - | - | - |
| 1777772705 | 17.22° C | 57% | 1013.7 hPa | 0 mm | - | - | - |
| 1777771805 | 16.67° C | 58% | 1013.7 hPa | 0 mm | - | - | - |
| 1777770905 | 16.67° C | 58% | 1013.7 hPa | 0 mm | - | - | - |
| 1777770005 | 16.11° C | 62% | 1013.7 hPa | 0 mm | - | - | - |
| 1777769105 | 16.11° C | 62% | 1013.7 hPa | 0 mm | - | - | - |
| 1777768205 | 15.56° C | 69% | 1013.7 hPa | 0 mm | - | - | - |
| 1777767304 | 15.56° C | 69% | 1013.7 hPa | 0 mm | - | - | - |
* Rain since midnight (hover to see other rain measurements)
** Current wind speed in m/s (hover to see current wind gust speed)